GW5008 Weather Reports


time (UTC)temp
F
wind
direction
speed
knots
gust
knots
rain 1hr
in
rain 24hr
in
rain mn
in
humidity
%
barometer
mb
20260507203437 52 23 0.0 1.7 0.00 0.00 0.00 51 1008.0
20260507202933 52 247 0.9 0.9 0.00 0.00 0.00 51 1008.0
20260507202430 52 348 0.0 1.7 0.00 0.00 0.00 52 1007.9
20260507201926 53 203 0.9 2.6 0.00 0.00 0.00 48 1007.9
20260507201421 54 73 1.7 1.7 0.00 0.00 0.00 49 1008.0
20260507200918 53 216 0.0 0.9 0.00 0.00 0.00 51 1008.0
20260507200414 53 36 0.9 3.5 0.00 0.00 0.00 52 1008.1
20260507195910 53 101 2.6 2.6 0.00 0.00 0.00 52 1008.0
20260507195408 53 239 1.7 5.2 0.00 0.00 0.00 49 1008.2
20260507194904 52 226 0.0 1.7 0.00 0.00 0.00 51 1008.1
20260507194401 52 87 1.7 2.6 0.00 0.00 0.00 52 1008.1
20260507193857 51 146 3.5 6.1 0.00 0.00 0.00 53 1008.2
20260507193355 51 128 4.3 6.1 0.00 0.00 0.00 53 1008.3
20260507192851 51 114 1.7 2.6 0.00 0.00 0.00 55 1008.3
20260507192347 52 89 1.7 2.6 0.00 0.00 0.00 52 1008.3
20260507191843 52 67 1.7 9.6 0.00 0.00 0.00 54 1008.3
20260507191340 53 79 5.2 7.8 0.00 0.00 0.00 48 1008.1
20260507190837 53 81 4.3 5.2 0.00 0.00 0.00 47 1008.2
20260507190335 54 71 5.2 9.6 0.00 0.00 0.00 48 1008.3
20260507185834 58 74 3.5 11.3 0.00 0.00 0.00 49 1008.4
20260507185330 55 269 1.7 5.2 0.00 0.00 0.00 48 1008.3
20260507184827 53 41 1.7 5.2 0.00 0.00 0.00 46 1008.4
20260507184325 52 70 3.5 7.8 0.00 0.00 0.00 50 1008.6
20260507183822 52 268 0.9 2.6 0.00 0.00 0.00 53 1008.8
20260507183319 52 89 4.3 9.6 0.00 0.00 0.00 52 1008.6
20260507182817 53 231 1.7 7.8 0.00 0.00 0.00 51 1008.4
20260507182312 55 173 0.9 3.5 0.00 0.00 0.00 49 1008.7
20260507181809 53 153 0.9 2.6 0.00 0.00 0.00 52 1008.7
20260507181304 53 199 2.6 5.2 0.00 0.00 0.00 50 1009.0
20260507180801 51 260 0.9 7.0 0.00 0.00 0.00 52 1008.8
20260507180258 51 87 2.6 3.5 0.00 0.00 0.00 51 1009.0
20260507175754 51 269 2.6 5.2 0.00 0.00 0.00 51 1009.1
20260507175251 51 323 0.0 6.1 0.00 0.00 0.00 52 1009.2
20260507174748 51 168 0.9 1.7 0.00 0.00 0.00 51 1008.8
20260507174246 52 180 0.0 6.1 0.00 0.00 0.00 51 1009.0
20260507173744 50 93 2.6 5.2 0.00 0.00 0.00 54 1009.1
20260507173241 50 59 1.7 7.0 0.00 0.00 0.00 51 1009.1
20260507172737 50 38 0.9 3.5 0.00 0.00 0.00 55 1009.1
20260507172234 50 271 1.7 13.0 0.00 0.00 0.00 51 1009.3
20260507171734 51 231 1.7 7.0 0.00 0.00 0.00 53 1009.1
20260507171232 52 168 3.5 7.0 0.00 0.00 0.00 52 1009.2
20260507170728 52 75 5.2 8.7 0.00 0.00 0.00 49 1009.2
20260507170225 54 81 8.7 11.3 0.00 0.00 0.00 46 1009.2
20260507165721 53 79 0.9 3.5 0.00 0.00 0.00 56 1009.5
20260507165217 52 252 2.6 3.5 0.00 0.00 0.00 50 1009.7
20260507164713 50 265 2.6 2.6 0.00 0.00 0.00 50 1009.8
20260507164211 50 42 0.9 7.0 0.00 0.00 0.00 54 1009.7
20260507163708 50 221 3.5 6.1 0.00 0.00 0.00 51 1009.7
20260507163206 51 69 5.2 8.7 0.00 0.00 0.00 56 1009.8
20260507162701 51 83 7.0 12.2 0.00 0.00 0.00 49 1009.8
20260507162157 53 197 1.7 6.1 0.00 0.00 0.00 51 1009.8
20260507161654 52 54 0.9 3.5 0.00 0.00 0.00 59 1009.7
20260507161150 49 100 1.7 9.6 0.00 0.00 0.00 59 1009.9
20260507160647 49 288 0.0 5.2 0.00 0.00 0.00 54 1009.9
20260507160144 52 46 1.7 5.2 0.00 0.00 0.00 53 1010.2
20260507155639 51 80 1.7 2.6 0.00 0.00 0.00 56 1010.1
20260507155136 52 197 1.7 7.0 0.00 0.00 0.00 52 1010.4
20260507154632 53 196 5.2 7.0 0.00 0.00 0.00 49 1010.3
20260507154130 52 101 1.7 2.6 0.00 0.00 0.00 52 1010.4
20260507153626 50 77 1.7 7.0 0.00 0.00 0.00 54 1010.5
20260507153123 51 76 7.0 8.7 0.00 0.00 0.00 52 1010.6
20260507152619 49 112 6.1 8.7 0.00 0.00 0.00 53 1010.4
20260507152115 49 215 3.5 6.1 0.00 0.00 0.00 57 1010.5
20260507151611 51 140 4.3 6.1 0.00 0.00 0.00 57 1010.6
20260507151109 50 118 3.5 13.0 0.00 0.00 0.00 55 1010.8
20260507150606 49 44 1.7 12.2 0.00 0.00 0.00 56 1010.6
20260507145557 47 226 3.5 5.2 0.00 0.00 0.00 59 1010.6
20260507145056 47 164 1.7 5.2 0.00 0.00 0.00 60 1010.9
20260507144551 48 82 2.6 2.6 0.00 0.00 0.00 55 1010.7
20260507144050 50 107 2.6 3.5 0.00 0.00 0.00 59 1010.8
20260507143546 50 11 0.9 2.6 0.00 0.00 0.00 62 1010.9
20260507143044 48 75 7.0 9.6 0.00 0.00 0.00 61 1010.9
20260507142538 48 88 1.7 3.5 0.00 0.00 0.00 63 1010.8
20260507142036 47 260 0.0 2.6 0.00 0.00 0.00 57 1010.9
20260507141532 47 101 3.5 5.2 0.00 0.00 0.00 56 1011.0
20260507141029 46 100 3.5 7.0 0.00 0.00 0.00 62 1010.8
20260507140526 48 86 0.9 2.6 0.00 0.00 0.00 66 1010.8
20260507140023 47 188 4.3 6.1 0.00 0.00 0.00 62 1011.0
20260507135520 48 96 2.6 3.5 0.00 0.00 0.00 63 1011.0
20260507135017 47 19 0.0 1.7 0.00 0.00 0.00 64 1011.0
20260507134514 46 108 0.9 1.7 0.00 0.00 0.00 64 1010.8
20260507134009 46 229 1.7 3.5 0.00 0.00 0.00 65 1011.0
20260507133505 47 225 0.9 1.7 0.00 0.00 0.00 61 1011.0
20260507133004 46 16 0.0 2.6 0.00 0.00 0.00 64 1011.2
20260507132500 46 68 2.6 6.1 0.00 0.00 0.00 69 1010.9
20260507131956 45 42 0.0 1.7 0.00 0.00 0.00 73 1011.0
20260507131453 45 260 0.9 3.5 0.00 0.00 0.00 72 1011.0
20260507130950 45 82 1.7 1.7 0.00 0.00 0.00 74 1011.3
20260507130447 44 101 1.7 2.6 0.00 0.00 0.00 74 1011.3
20260507125946 44 99 2.6 3.5 0.00 0.00 0.00 75 1011.3
20260507125444 43 205 0.9 2.6 0.00 0.00 0.00 78 1011.3
20260507124941 42 145 1.7 5.2 0.00 0.00 0.00 80 1011.2
20260507124437 42 99 2.6 5.2 0.00 0.00 0.00 80 1011.3
20260507123935 42 140 3.5 5.2 0.00 0.00 0.00 80 1011.4
20260507123433 42 191 0.9 2.6 0.00 0.00 0.00 81 1011.3
20260507122929 42 60 0.0 2.6 0.00 0.00 0.00 83 1011.3
20260507122424 42 121 0.9 3.5 0.00 0.00 0.00 82 1011.2
20260507121921 42 92 0.9 2.6 0.00 0.00 0.00 82 1011.0
20260507121416 42 77 0.0 0.9 0.00 0.00 0.00 81 1010.8
20260507120913 41 306 0.0 3.5 0.00 0.00 0.00 82 1010.7
20260507120409 41 93 0.9 1.7 0.00 0.00 0.00 82 1010.9
20260507115905 40 82 0.9 0.9 0.00 0.00 0.00 82 1010.9
20260507115401 39 108 0.9 2.6 0.00 0.00 0.00 82 1011.0
20260507114857 39 107 1.7 3.5 0.00 0.00 0.00 83 1011.0
20260507114355 39 93 0.9 1.7 0.00 0.00 0.00 83 1011.0
20260507113852 39 178 0.0 1.7 0.00 0.00 0.00 83 1011.2
20260507113349 39 65 0.0 1.7 0.00 0.00 0.00 83 1010.9
20260507112846 39 134 0.9 1.7 0.00 0.00 0.00 83 1010.9
20260507112343 38 304 0.9 3.5 0.00 0.00 0.00 86 1010.8
20260507111841 38 123 1.7 2.6 0.00 0.00 0.00 88 1010.8
20260507111338 38 77 0.9 1.7 0.00 0.00 0.00 90 1010.6
20260507110833 38 164 0.0 2.6 0.00 0.00 0.00 90 1010.7
20260507110330 38 94 0.9 1.7 0.00 0.00 0.00 90 1010.6
20260507105827 37 79 0.0 1.7 0.00 0.00 0.00 92 1010.6
20260507105323 37 140 0.0 0.0 0.00 0.00 0.00 91 1010.6
20260507104820 37 303 0.0 0.0 0.00 0.00 0.00 94 1010.5
20260507104317 36 82 0.9 0.9 0.00 0.00 0.00 95 1010.5
20260507103813 35 124 0.0 1.7 0.00 0.00 0.00 96 1010.6
20260507103309 35 96 0.0 0.9 0.00 0.00 0.00 97 1010.4
20260507102806 34 114 1.7 1.7 0.00 0.00 0.00 97 1010.3
20260507102306 34 98 0.9 0.9 0.00 0.00 0.00 97 1010.3
20260507101759 34 90 0.9 1.7 0.00 0.00 0.00 97 1010.2
20260507101254 34 105 0.9 1.7 0.00 0.00 0.00 98 1010.4
20260507100751 34 127 0.0 0.9 0.00 0.00 0.00 97 1010.3
20260507100250 34 92 0.0 1.7 0.00 0.00 0.00 97 1010.2
20260507095747 35 85 0.9 1.7 0.00 0.00 0.00 97 1010.2
20260507095243 35 74 0.0 0.9 0.00 0.00 0.00 98 1010.3
20260507094741 35 121 0.0 0.0 0.00 0.00 0.00 98 1010.1
20260507094238 35 109 1.7 1.7 0.00 0.00 0.00 98 1010.3
20260507093734 35 132 0.9 1.7 0.00 0.00 0.00 98 1010.4
20260507093233 35 73 0.0 1.7 0.00 0.00 0.00 98 1010.2
20260507092730 35 84 0.0 1.7 0.00 0.00 0.00 98 1010.2
20260507092226 35 88 0.9 1.7 0.00 0.00 0.00 98 1010.1
20260507091723 35 105 0.0 0.0 0.00 0.00 0.00 98 1010.0
20260507091219 35 101 0.0 0.9 0.00 0.00 0.00 98 1010.1
20260507090719 36 92 0.9 0.9 0.00 0.00 0.00 97 1010.2
20260507090216 36 110 0.9 0.9 0.00 0.00 0.00 97 1010.3
20260507085713 36 78 0.0 1.7 0.00 0.00 0.00 97 1010.2
20260507085210 36 74 0.0 0.9 0.00 0.00 0.00 96 1010.3
20260507084707 37 90 1.7 2.6 0.00 0.00 0.00 97 1010.3
20260507084203 37 82 0.0 1.7 0.00 0.00 0.00 97 1010.3
20260507083701 37 113 0.0 0.9 0.00 0.00 0.00 97 1010.2
20260507083157 38 91 0.0 0.9 0.00 0.00 0.00 97 1010.2
20260507082653 38 87 0.9 1.7 0.00 0.00 0.00 98 1010.3
20260507082149 38 109 0.0 0.0 0.00 0.00 0.00 98 1010.2
20260507081646 38 100 0.9 0.9 0.00 0.00 0.00 98 1010.3
20260507081143 39 86 0.0 0.9 0.00 0.00 0.00 98 1010.2
20260507080640 39 99 0.0 0.9 0.00 0.00 0.00 97 1010.3
20260507080137 39 35 0.0 0.0 0.00 0.00 0.00 97 1010.4
20260507075636 39 82 0.0 0.9 0.00 0.00 0.00 97 1010.3
20260507075133 39 152 0.9 1.7 0.00 0.00 0.00 97 1010.3
20260507074630 39 68 0.9 2.6 0.00 0.00 0.00 97 1010.3
20260507074128 39 324 0.0 0.9 0.00 0.00 0.00 98 1010.4
20260507073624 39 105 0.0 1.7 0.00 0.00 0.00 98 1010.3
20260507073121 39 277 0.0 1.7 0.00 0.00 0.00 97 1010.2
20260507072618 39 77 0.9 2.6 0.00 0.00 0.00 97 1010.4
20260507072115 39 152 0.9 2.6 0.00 0.00 0.00 97 1010.6
20260507071613 39 103 2.6 2.6 0.00 0.00 0.00 97 1010.4
20260507071109 39 100 1.7 2.6 0.00 0.00 0.00 97 1010.4
20260507070606 39 198 0.0 2.6 0.00 0.00 0.00 98 1010.3
20260507070103 38 126 0.9 1.7 0.00 0.00 0.00 98 1010.3
20260507065600 38 85 0.0 0.9 0.00 0.00 0.00 98 1010.4
20260507065057 38 98 0.9 1.7 0.00 0.00 0.00 97 1010.5
20260507064555 38 123 0.0 1.7 0.00 0.00 0.00 97 1010.5
20260507064053 38 104 1.7 3.5 0.00 0.00 0.00 97 1010.6
20260507063550 39 78 0.0 3.5 0.00 0.00 0.00 97 1010.5
20260507063047 39 104 1.7 3.5 0.00 0.00 0.00 96 1010.5
20260507062543 39 95 3.5 5.2 0.00 0.00 0.00 97 1010.5
20260507062041 39 86 1.7 2.6 0.00 0.00 0.00 97 1010.3
20260507061539 40 186 1.7 2.6 0.00 0.00 0.00 98 1010.5
20260507061037 40 286 0.9 1.7 0.00 0.00 0.00 98 1010.5
20260507060534 41 72 1.7 2.6 0.00 0.00 0.00 99 1010.4
20260507060031 41 91 0.9 2.6 0.00 0.00 0.00 99 1010.4
20260507055525 41 179 0.9 5.2 0.00 0.00 0.00 99 1010.3
20260507055022 41 66 0.9 6.1 0.00 0.00 0.00 99 1010.0
20260507054518 42 320 0.0 3.5 0.00 0.00 0.00 99 1010.2
20260507054015 42 84 0.9 1.7 0.00 0.00 0.00 99 1010.1
20260507053513 42 87 0.0 1.7 0.00 0.00 0.00 99 1010.1
20260507053011 42 359 0.9 2.6 0.00 0.00 0.00 99 1010.1
20260507052509 42 106 0.9 2.6 0.00 0.00 0.00 99 1010.2
20260507052005 42 89 0.9 2.6 0.00 0.00 0.00 99 1010.0
20260507051503 42 82 0.0 2.6 0.00 0.00 0.00 99 1010.1
20260507050959 42 84 1.7 5.2 0.00 0.00 0.00 99 1010.2
20260507050456 42 93 1.7 2.6 0.00 0.00 0.00 99 1010.0
20260507045953 42 80 1.7 3.5 0.00 0.00 0.00 99 1010.2
20260507045449 42 146 0.9 1.7 0.00 0.00 0.00 99 1010.0
20260507044947 42 22 0.0 0.9 0.00 0.00 0.00 99 1009.9
20260507044443 42 94 1.7 3.5 0.00 0.00 0.00 99 1010.1
20260507043939 42 112 0.9 1.7 0.00 0.00 0.00 99 1010.3
20260507043436 42 96 0.9 1.7 0.00 0.00 0.00 99 1010.2
20260507042932 42 150 0.0 0.9 0.00 0.00 0.00 99 1010.2
20260507042429 41 92 0.9 1.7 0.00 0.00 0.00 99 1010.2
20260507041925 41 72 0.0 0.9 0.00 0.00 0.00 99 1010.1
20260507041422 40 31 0.0 0.0 0.00 0.00 0.00 99 1010.1
20260507040919 40 4 0.0 0.0 0.00 0.00 0.00 99 1010.5
20260507040415 40 257 0.0 0.0 0.00 0.00 0.00 99 1010.3
20260507035911 40 284 0.0 0.0 0.05 0.45 0.45 99 1010.1
20260507035407 40 24 0.0 0.0 0.05 0.45 0.45 99 1010.2
20260507034904 40 242 0.0 0.0 0.00 0.44 0.44 99 1010.3
20260507034401 40 249 0.0 0.9 0.00 0.44 0.44 99 1010.2
20260507033859 40 296 0.0 0.0 0.00 0.44 0.44 99 1010.2
20260507033357 40 295 0.0 0.0 0.00 0.44 0.44 99 1010.0
20260507032853 40 301 0.0 0.0 0.00 0.44 0.44 99 1009.9
20260507032350 40 338 0.0 0.0 0.00 0.44 0.44 99 1010.0
20260507031846 40 269 0.0 0.0 0.00 0.44 0.44 99 1010.1
20260507031343 39 76 0.0 1.7 0.00 0.44 0.44 99 1009.9
20260507030840 39 340 0.0 0.0 0.00 0.44 0.44 99 1009.9
20260507030337 40 159 0.0 0.9 0.00 0.44 0.44 99 1009.9
20260507025834 40 158 0.0 0.0 0.00 0.44 0.44 99 1009.9
20260507025331 40 158 0.0 0.0 0.00 0.44 0.44 99 1009.9
20260507024829 41 158 0.0 0.0 0.00 0.44 0.44 99 1010.0
20260507024326 41 158 0.0 0.0 0.00 0.44 0.44 99 1010.5
20260507023822 41 158 0.0 0.0 0.00 0.44 0.44 99 1010.2
20260507023319 41 158 0.0 0.0 0.00 0.44 0.44 99 1010.2
20260507022816 41 158 0.0 0.0 0.00 0.44 0.44 99 1010.4
20260507022312 42 43 0.0 0.0 0.00 0.44 0.44 99 1010.5
20260507021809 42 43 0.0 0.0 0.00 0.44 0.44 99 1010.3
20260507021304 42 37 0.0 0.0 0.00 0.44 0.44 99 1010.3
20260507020802 42 312 0.0 0.0 0.00 0.44 0.44 99 1010.4
20260507020258 42 330 0.0 0.0 0.00 0.44 0.44 99 1010.4
20260507015756 42 246 0.0 0.0 0.00 0.44 0.44 99 1010.8
20260507015253 42 67 0.0 0.9 0.00 0.44 0.44 99 1010.9
20260507014750 42 353 0.0 0.0 0.00 0.44 0.44 99 1010.3
20260507014246 43 353 0.0 0.0 0.00 0.44 0.44 99 1010.5
20260507013743 43 88 0.0 0.0 0.00 0.44 0.44 99 1010.8
20260507013241 43 74 0.0 0.0 0.00 0.44 0.44 99 1011.0
20260507012738 43 65 0.9 1.7 0.00 0.44 0.44 99 1011.0
20260507012233 43 64 0.9 0.9 0.00 0.44 0.44 99 1010.7
20260507011731 43 75 0.0 0.9 0.00 0.44 0.44 99 1010.5
20260507011228 43 83 0.0 0.0 0.00 0.44 0.44 99 1010.6
20260507010727 43 212 0.9 0.9 0.00 0.44 0.44 99 1010.6
20260507010223 43 238 0.0 0.0 0.00 0.44 0.44 99 1010.4
20260507005721 43 46 0.0 0.9 0.00 0.44 0.44 99 1010.4
20260507005217 43 83 0.0 0.0 0.00 0.44 0.44 99 1010.5
20260507004714 43 56 0.0 0.0 0.00 0.44 0.44 99 1010.5
20260507004212 43 67 0.0 0.0 0.00 0.44 0.44 99 1010.4
20260507003707 43 76 0.0 0.9 0.00 0.44 0.44 99 1010.1
20260507003203 43 80 0.0 1.7 0.00 0.44 0.44 99 1010.0
20260507002659 43 78 0.0 0.0 0.00 0.44 0.44 99 1010.0
20260507002155 43 216 0.9 0.9 0.00 0.44 0.44 99 1010.0
20260507001652 43 260 1.7 5.2 0.00 0.44 0.44 99 1010.1
20260507001150 43 90 0.9 1.7 0.00 0.44 0.44 99 1010.0
20260507000646 43 265 0.0 0.9 0.00 0.44 0.44 99 1009.8
20260507000141 43 71 1.7 2.6 0.00 0.44 0.44 99 1009.6
20260506235639 43 22 0.9 1.7 0.00 0.44 0.44 99 1009.3
20260506235139 43 112 1.7 2.6 0.00 0.44 0.44 99 1009.1
20260506234636 43 124 1.7 5.2 0.00 0.44 0.44 99 1009.2
20260506234133 43 104 1.7 2.6 0.00 0.44 0.44 99 1009.5
20260506233630 43 63 0.9 3.5 0.00 0.44 0.44 99 1009.5
20260506233127 43 59 0.0 2.6 0.00 0.44 0.44 99 1009.3
20260506232623 43 129 1.7 3.5 0.00 0.44 0.44 99 1009.3
20260506232119 44 59 0.9 1.7 0.00 0.44 0.44 99 1009.0
20260506231616 43 265 0.0 1.7 0.00 0.44 0.44 99 1009.0
20260506231114 44 55 0.0 0.0 0.00 0.44 0.44 99 1009.2
20260506230611 44 75 0.9 6.1 0.00 0.44 0.44 99 1009.5
20260506230108 44 170 1.7 2.6 0.00 0.44 0.44 99 1009.1
20260506225604 44 92 0.9 3.5 0.00 0.44 0.44 99 1009.1
20260506225101 44 104 0.9 6.1 0.00 0.44 0.44 99 1009.3
20260506224558 44 286 0.9 2.6 0.00 0.44 0.44 99 1009.2
20260506224054 44 107 0.9 3.5 0.00 0.44 0.44 99 1009.1
20260506223550 44 84 3.5 6.1 0.00 0.44 0.44 99 1009.0
20260506223047 44 166 2.6 2.6 0.00 0.44 0.44 99 1009.1
20260506222544 44 145 2.6 3.5 0.00 0.44 0.44 99 1008.9
20260506222040 44 63 0.9 5.2 0.00 0.44 0.44 99 1008.9
20260506221538 44 76 0.0 1.7 0.00 0.44 0.44 99 1008.7
20260506221036 44 89 0.0 1.7 0.00 0.44 0.44 99 1008.7
20260506220531 45 208 0.0 1.7 0.00 0.44 0.44 99 1008.7
20260506220027 44 165 0.9 3.5 0.00 0.44 0.44 99 1008.6
20260506215524 44 273 1.7 2.6 0.00 0.44 0.44 99 1008.5
20260506215020 44 42 0.9 1.7 0.00 0.44 0.44 99 1008.3
20260506214517 44 211 0.9 3.5 0.00 0.44 0.44 99 1008.2
20260506214014 45 351 0.0 1.7 0.00 0.44 0.44 99 1008.3
20260506213513 45 71 0.9 2.6 0.07 0.44 0.44 99 1008.2
20260506213009 45 130 0.0 2.6 0.07 0.44 0.44 99 1008.1
20260506212505 45 76 0.0 2.6 0.00 0.43 0.43 99 1007.9
20260506212000 45 194 1.7 1.7 0.05 0.43 0.43 99 1007.8
20260506211456 45 74 0.9 2.6 0.05 0.43 0.43 99 1007.9
20260506210954 45 77 1.7 3.5 0.00 0.42 0.42 99 1007.9
20260506210450 45 174 2.6 5.2 0.00 0.42 0.42 99 1007.8
20260506205947 46 70 2.6 3.5 0.00 0.42 0.42 99 1007.6
20260506205443 46 265 0.9 6.1 0.00 0.42 0.42 99 1007.3
20260506204940 46 77 1.7 7.0 0.00 0.42 0.42 99 1007.3
20260506204438 46 115 3.5 7.8 0.00 0.42 0.42 99 1007.1
20260506203935 46 82 1.7 3.5 0.00 0.42 0.42 99 1006.9